Weather History for KBQP - March, 2014

Change the Weather History Date:

Sunday, March 16, 2014

  Actual Average (KMLU) Record (KMLU)
Temperature  
Mean Temperature 56 °F 58 °F  
Max Temperature 69 °F 70 °F 85 °F (1963)
Min Temperature 42 °F 46 °F 30 °F (1954)
Degree Days  
Heating Degree Days 10 8  
Month to date heating degree days 156  
Since 1 July heating degree days 2050  
Cooling Degree Days 0 1  
Month to date cooling degree days 14  
Year to date cooling degree days 25  
Growing Degree Days 6 (Base 50)    
Moisture  
Dew Point 50 °F    
Average Humidity 80    
Maximum Humidity 93    
Minimum Humidity 49    
Precipitation  
Precipitation 0.00 in 0.15 in 2.70 in (1980)
Month to date precipitation 2.58  
Year to date precipitation 12.22  
Snow  
Snow 0.00 in - - ()
Month to date snowfall  
Since 1 July snowfall  
Snow Depth -    
Sea Level Pressure  
Sea Level Pressure 29.74 in    
Wind  
Wind Speed 5 mph (NW)    
Max Wind Speed 18 mph    
Max Gust Speed 31 mph    
Visibility 8 miles    
Events Fog , Rain , Thunderstorm    
T = Trace of Precipitation, MM = Missing Value Source: NWS Daily Summary

Daily Weather History Graph

Daily Weather History Graph

Search for Another Location

Airport or City:

Trip Planner

Search our weather history database for the weather conditions in past years. The results will help you decide how hot, cold, wet, or windy it might be!

Date:

Astronomy

Mar. 16, 2014 Rise Set
Actual Time 7:16 AM CDT 7:16 PM CDT
Civil Twilight 6:51 AM CDT 7:40 PM CDT
Nautical Twilight 6:23 AM CDT 8:09 PM CDT
Astronomical Twilight 5:54 AM CDT 8:38 PM CDT
Moon 7:31 PM CDT (3/16) 7:01 AM CDT (3/16)
Length of Visible Light 12h 48m
Length of Day
11h 59m
Full, 100% of the Moon is Illuminated
Mar 16
Full
Mar 16
Full
Mar 23
Last Quarter
Mar 30
New
Apr 7
First Quarter

Hourly Weather History & Observations

Time (CDT) Temp. Windchill Dew Point Humidity Pressure Visibility Wind Dir Wind Speed Gust Speed Precip Events Conditions
12:15 AM 61.2 °F - 58.8 °F 92% 29.76 in 5.0 mi Calm Calm - N/A Rain , Thunderstorm Light Thunderstorms and Rain
12:35 AM 61.2 °F - 59.0 °F 93% 29.73 in 5.0 mi East 9.2 mph - N/A   Light Drizzle
1:15 AM 61.3 °F - 59.0 °F 92% 29.71 in 3.0 mi ESE 5.8 mph - N/A Rain Heavy Rain
1:35 AM 61.0 °F - 58.5 °F 91% 29.71 in 4.0 mi ESE 3.5 mph - N/A Rain , Thunderstorm Heavy Thunderstorms and Rain
1:55 AM 60.8 °F - 58.3 °F 91% 29.70 in 4.0 mi Calm Calm - N/A Rain Rain
2:15 AM 60.8 °F - 58.3 °F 91% 29.70 in 5.0 mi Calm Calm - N/A Rain Rain
2:35 AM 60.8 °F - 58.3 °F 91% 29.69 in 5.0 mi Calm Calm - N/A Rain Rain
2:55 AM 60.8 °F - 58.5 °F 92% 29.71 in 5.0 mi Calm Calm - N/A Rain Heavy Rain
3:15 AM 60.8 °F - 58.3 °F 91% 29.69 in 10.0 mi Calm Calm - N/A   Overcast
3:35 AM 59.5 °F - 57.4 °F 93% 29.66 in 3.0 mi Calm Calm - N/A   Scattered Clouds
3:55 AM 59.5 °F - 57.4 °F 93% 29.64 in 5.0 mi Calm Calm - N/A   Clear
4:15 AM 58.1 °F - 55.8 °F 92% 29.63 in 0.5 mi Calm Calm - N/A Fog Fog
4:35 AM 57.4 °F - 55.4 °F 93% 29.64 in 0.5 mi Calm Calm - N/A Fog Fog
4:55 AM 57.2 °F - 55.0 °F 92% 29.64 in 0.2 mi Calm Calm - N/A Fog Fog
5:15 AM 57.4 °F - 55.4 °F 93% 29.64 in 0.8 mi Calm Calm - N/A   Mist
5:35 AM 58.1 °F - 56.1 °F 93% 29.65 in 10.0 mi Calm Calm - N/A   Clear
5:55 AM 58.1 °F - 56.1 °F 93% 29.66 in 10.0 mi Calm Calm - N/A   Clear
6:15 AM 58.1 °F - 56.1 °F 93% 29.67 in 10.0 mi Calm Calm - N/A   Clear
6:35 AM 57.7 °F - 55.8 °F 93% 29.67 in 10.0 mi Calm Calm - N/A   Clear
7:15 AM 57.9 °F - 55.8 °F 92% 29.67 in 10.0 mi Calm Calm - N/A   Scattered Clouds
7:35 AM 57.9 °F - 55.6 °F 92% 29.69 in 10.0 mi Calm Calm - N/A   Scattered Clouds
7:55 AM 58.1 °F - 56.1 °F 93% 29.69 in 10.0 mi Calm Calm - N/A   Clear
8:15 AM 58.1 °F - 55.8 °F 92% 29.69 in 10.0 mi Calm Calm - N/A   Clear
8:35 AM 58.5 °F - 56.3 °F 93% 29.70 in 7.0 mi Calm Calm - N/A   Scattered Clouds
8:55 AM 59.0 °F - 56.8 °F 93% 29.71 in 7.0 mi Calm Calm - N/A   Mostly Cloudy
9:15 AM 59.2 °F - 56.7 °F 91% 29.71 in 10.0 mi West 4.6 mph - N/A   Overcast
9:35 AM 59.4 °F - 56.5 °F 90% 29.71 in 10.0 mi West 11.5 mph 16.1 mph N/A   Overcast
9:55 AM 59.5 °F - 56.1 °F 88% 29.70 in 10.0 mi West 10.4 mph 16.1 mph N/A   Overcast
10:15 AM 59.7 °F - 55.6 °F 86% 29.70 in 10.0 mi West 11.5 mph - N/A   Overcast
10:35 AM 60.3 °F - 55.8 °F 85% 29.69 in 10.0 mi West 8.1 mph 16.1 mph N/A   Overcast
10:55 AM 60.6 °F - 55.4 °F 83% 29.70 in 10.0 mi West 6.9 mph - N/A   Overcast
11:15 AM 61.9 °F - 55.4 °F 79% 29.72 in 10.0 mi WSW 5.8 mph 19.6 mph N/A   Mostly Cloudy
11:35 AM 62.1 °F - 54.7 °F 77% 29.74 in 10.0 mi West 10.4 mph 18.4 mph N/A   Mostly Cloudy
11:55 AM 63.0 °F - 54.7 °F 74% 29.73 in 10.0 mi WSW 10.4 mph 16.1 mph N/A   Mostly Cloudy
12:15 PM 63.7 °F - 54.3 °F 72% 29.71 in 10.0 mi West 15.0 mph 20.7 mph N/A   Scattered Clouds
12:35 PM 65.3 °F - 54.5 °F 68% 29.71 in 10.0 mi West 4.6 mph 18.4 mph N/A   Clear
12:55 PM 67.3 °F - 54.5 °F 63% 29.70 in 10.0 mi WNW 16.1 mph 24.2 mph N/A   Scattered Clouds
1:15 PM 68.7 °F - 52.9 °F 57% 29.69 in 10.0 mi WNW 18.4 mph 26.5 mph N/A   Mostly Cloudy
1:55 PM 69.3 °F - 52.2 °F 54% 29.66 in 10.0 mi West 15.0 mph 23.0 mph N/A   Mostly Cloudy
2:15 PM 69.4 °F - 52.3 °F 54% 29.66 in 10.0 mi West 16.1 mph 25.3 mph N/A   Overcast
2:35 PM 68.4 °F - 51.1 °F 54% 29.65 in 10.0 mi WNW 16.1 mph 24.2 mph N/A   Overcast
2:55 PM 69.3 °F - 50.2 °F 51% 29.64 in 10.0 mi West 17.3 mph 24.2 mph N/A   Mostly Cloudy
3:15 PM 69.4 °F - 49.6 °F 49% 29.65 in 10.0 mi WNW 13.8 mph 26.5 mph N/A   Mostly Cloudy
3:35 PM 67.1 °F - 49.6 °F 53% 29.66 in 10.0 mi WNW 18.4 mph 31.1 mph N/A   Overcast
3:55 PM 66.2 °F - 49.6 °F 55% 29.66 in 10.0 mi WNW 15.0 mph 24.2 mph N/A   Overcast
4:15 PM 61.2 °F - 48.6 °F 63% 29.68 in 10.0 mi NW 16.1 mph 28.8 mph N/A   Overcast
4:35 PM 57.6 °F - 45.1 °F 63% 29.70 in 10.0 mi NW 13.8 mph 31.1 mph N/A   Overcast
4:55 PM 56.7 °F - 44.6 °F 64% 29.72 in 10.0 mi NW 17.3 mph 31.1 mph N/A   Overcast
5:15 PM 56.3 °F - 44.4 °F 64% 29.73 in 10.0 mi NW 16.1 mph 24.2 mph N/A   Overcast
5:35 PM 54.9 °F - 43.9 °F 66% 29.74 in 10.0 mi NNW 11.5 mph 28.8 mph N/A   Overcast
5:55 PM 53.8 °F - 44.2 °F 70% 29.75 in 10.0 mi NNW 11.5 mph 24.2 mph N/A   Overcast
6:15 PM 51.3 °F - 44.1 °F 76% 29.77 in 7.0 mi NNW 10.4 mph 16.1 mph N/A   Overcast
6:35 PM 49.8 °F - 44.2 °F 81% 29.79 in 4.0 mi North 6.9 mph 18.4 mph N/A   Haze
6:55 PM 48.2 °F - 43.7 °F 84% 29.82 in 5.0 mi Calm Calm - N/A   Overcast
7:15 PM 47.8 °F - 43.0 °F 83% 29.84 in 7.0 mi Calm Calm - N/A   Overcast
7:35 PM 46.6 °F - 42.6 °F 86% 29.84 in 4.0 mi North 5.8 mph - N/A   Drizzle
7:55 PM 45.5 °F - 42.3 °F 88% 29.85 in 4.0 mi Calm Calm - N/A Rain Light Rain
8:15 PM 44.4 °F 40.5 °F 40.3 °F 85% 29.84 in 7.0 mi North 6.9 mph 18.4 mph N/A   Overcast
8:35 PM 43.7 °F 39.7 °F 38.5 °F 82% 29.86 in 10.0 mi NNW 6.9 mph 17.3 mph N/A   Overcast
8:55 PM 43.9 °F 41.3 °F 37.8 °F 79% 29.89 in 10.0 mi North 4.6 mph - N/A   Overcast
9:15 PM 43.7 °F 41.1 °F 38.3 °F 81% 29.88 in 10.0 mi NNW 4.6 mph - N/A   Overcast
9:35 PM 43.3 °F 40.7 °F 36.1 °F 76% 29.89 in 10.0 mi North 4.6 mph - N/A   Overcast
9:55 PM 43.0 °F 41.3 °F 35.6 °F 75% 29.90 in 10.0 mi NNW 3.5 mph - N/A   Overcast
10:15 PM 43.0 °F - 36.5 °F 78% 29.91 in 10.0 mi Calm Calm - N/A   Overcast
10:35 PM 43.0 °F 40.3 °F 36.1 °F 77% 29.91 in 10.0 mi NNW 4.6 mph - N/A   Overcast
10:55 PM 42.8 °F 38.0 °F 36.9 °F 80% 29.92 in 10.0 mi NW 8.1 mph - N/A   Overcast
11:15 PM 42.8 °F 38.0 °F 36.0 °F 77% 29.93 in 10.0 mi NNW 8.1 mph 16.1 mph N/A   Overcast
11:35 PM 42.8 °F - 36.0 °F 77% 29.93 in 10.0 mi Calm Calm - N/A   Overcast
11:55 PM 42.8 °F - 35.2 °F 75% 29.93 in 10.0 mi Calm Calm - N/A   Overcast